Hulianwang W. Digui 11-04

operational
NORAD ID: 65820 Int'l Des: 2025-220 Owner: ZXW Country: CN Constellation: xingwang
LEOCIRCULARPOLAR

About Hulianwang W. Digui 11-04

Description loading...

Live Position

Loading 3D Globe...

Upcoming Passes

Altitude History

Altitude vs Time

uPlot chart will show altitude changes over time

Two-Line Element Set

1 65820U 25220D 25298.29523007 -.00000130 00000-0 -22149-3 0 9993
2 65820 86.4972 123.3902 0001272 91.2722 268.8573 13.52287956 3790
Epoch: Oct 25, 2025 • Age: 9 hours

Current Status

Altitude 1075.6 km
Velocity 7.32 km/s
Sub-Earth Point 73.50°N, 144.11°W
Launch Date Sep 27, 2025
Age 28 days
Type other

Technical Details

Classification Payload
Mass 800.00 kg
Dry Mass 800.00 kg
Total Mass 800.00 kg
Length 3.00 m
Diameter 1.00 m
Span 10.00 m
Shape Box + 2 Pan
Manufacturer SECM
Bus Type Guowang S
Phase Status In Orbit
Owner/State ZXW/CN

Large Constellations

Loading constellations...